DMC3-FM1

Last updated on Mon Jun 22 2026 00:02:57 GMT+0000 (Coordinated Universal Time)

1 40715U 15032A 26172.58298138 .00000737 00000+0 90770-4 0 9993 2 40715 97.6453 37.5846 0006752 48.9691 311.2108 14.85743079590562
UTC large
Height (km)
Speed (km/s)
/
Latitude / Longitude
Inclination (degrees)
Orbital Period (minutes)
Azimuth
Elevation
Range (km)
Doppler Factor

Next 0 passes for location: London (51.5072 / 0.1276)

No passes found over London.
DMC3-FM1